FW6320 Weather Reports


Display with metric or nautical units.
time (UTC)temp
F
wind
direction
speed
MPH
gust
MPH
rain 1hr
in
rain 24hr
in
rain mn
in
humidity
%
barometer
mb
20260906052520 83 0 0.0 0.0 0.00 0.00 0.00 69 1013.3
20260906052021 83 0 0.0 0.0 0.00 0.00 0.00 68 1013.3
20260906051541 83 0 0.0 0.0 0.00 0.00 0.00 68 1013.3
20260906051021 84 0 0.0 0.0 0.00 0.00 0.00 67 1013.1
20260906050525 84 0 0.0 0.0 0.00 0.00 0.00 67 1013.0
20260906050048 84 0 0.0 0.0 0.00 0.00 0.00 67 1013.1
20260906045524 84 0 0.0 1.0 0.00 0.00 0.00 67 1013.1
20260906045022 85 0 0.0 3.0 0.00 0.00 0.00 66 1013.1
20260906044542 85 0 0.0 3.0 0.00 0.00 0.00 66 1013.2
20260906044023 85 0 0.0 5.0 0.00 0.00 0.00 65 1013.1
20260906043521 85 0 1.0 5.0 0.00 0.00 0.00 65 1013.0
20260906043040 85 138 2.0 5.0 0.00 0.00 0.00 65 1013.1
20260906042523 85 137 0.0 4.0 0.00 0.00 0.00 65 1013.0
20260906042020 85 0 0.0 3.0 0.00 0.00 0.00 65 1013.0
20260906041543 86 137 0.0 3.0 0.00 0.00 0.00 64 1012.9
20260906041024 86 136 1.0 5.0 0.00 0.00 0.00 64 1012.9
20260906040524 86 0 1.0 5.0 0.00 0.00 0.00 64 1012.9
20260906040045 86 136 2.0 5.0 0.00 0.00 0.00 63 1012.9
20260906035522 86 138 3.0 5.0 0.00 0.00 0.00 63 1012.9
20260906035021 87 127 2.0 9.0 0.00 0.00 0.00 63 1013.0
20260906034557 87 144 4.0 9.0 0.00 0.00 0.00 63 1013.0
20260906034020 87 140 2.0 9.0 0.00 0.00 0.00 62 1013.0
20260906033520 87 136 4.0 10.0 0.00 0.00 0.00 62 1013.1
20260906033044 87 133 4.0 11.0 0.00 0.00 0.00 62 1013.1
20260906032520 88 140 5.0 12.0 0.00 0.00 0.00 61 1013.1
20260906032025 88 132 4.0 12.0 0.00 0.00 0.00 61 1012.9
20260906031549 88 139 6.0 11.0 0.00 0.00 0.00 61 1013.0
20260906031024 88 144 5.0 11.0 0.00 0.00 0.00 60 1013.0
20260906030526 88 144 5.0 11.0 0.00 0.00 0.00 60 1012.9
20260906030044 88 153 6.0 11.0 0.00 0.00 0.00 60 1012.9
20260906025523 89 148 5.0 13.0 0.00 0.00 0.00 59 1012.7
20260906025021 89 150 7.0 13.0 0.00 0.00 0.00 59 1012.8
20260906024543 89 136 6.0 12.0 0.00 0.00 0.00 58 1012.8
20260906024022 89 163 7.0 15.0 0.00 0.00 0.00 57 1012.6
20260906023520 90 146 7.0 15.0 0.00 0.00 0.00 57 1012.5
20260906023040 90 163 8.0 14.0 0.00 0.00 0.00 56 1012.4
20260906022522 90 161 6.0 12.0 0.00 0.00 0.00 55 1012.4
20260906022020 90 126 8.0 12.0 0.00 0.00 0.00 54 1012.4
20260906021557 90 154 3.0 7.0 0.00 0.00 0.00 51 1012.3
20260906021017 89 0 0.0 1.0 0.00 0.00 0.00 51 1012.1
20260906020518 90 0 0.0 1.0 0.00 0.00 0.00 51 1012.0
20260906020042 90 92 0.0 1.0 0.00 0.00 0.00 50 1012.0
20260906015524 90 0 0.0 0.0 0.00 0.00 0.00 50 1011.9
20260906015025 90 0 0.0 0.0 0.00 0.00 0.00 50 1011.9
20260906014550 90 0 0.0 0.0 0.00 0.00 0.00 49 1011.7
20260906014028 91 0 0.0 0.0 0.00 0.00 0.00 49 1011.7
20260906013523 91 0 0.0 0.0 0.00 0.00 0.00 49 1011.6
20260906013044 91 0 0.0 0.0 0.00 0.00 0.00 48 1011.6
20260906012523 92 0 0.0 2.0 0.00 0.00 0.00 48 1011.6
20260906012022 92 0 0.0 2.0 0.00 0.00 0.00 48 1011.5
20260906011542 92 0 0.0 3.0 0.00 0.00 0.00 48 1011.5
20260906011021 92 93 0.0 3.0 0.00 0.00 0.00 47 1011.5
20260906010519 93 0 0.0 3.0 0.00 0.00 0.00 47 1011.5
20260906010054 93 0 0.0 3.0 0.00 0.00 0.00 46 1011.4
20260906005520 93 0 0.0 3.0 0.00 0.00 0.00 46 1011.3
20260906005020 94 90 1.0 4.0 0.00 0.00 0.00 46 1011.4
20260906004552 94 90 1.0 6.0 0.00 0.00 0.00 45 1011.3
20260906004029 94 111 1.0 6.0 0.00 0.00 0.00 45 1011.2
20260906003524 94 94 3.0 6.0 0.00 0.00 0.00 44 1011.3
20260906003043 95 107 2.0 6.0 0.00 0.00 0.00 44 1011.3
20260906002520 95 0 1.0 7.0 0.00 0.00 0.00 43 1011.3
20260906002024 95 116 2.0 8.0 0.00 0.00 0.00 43 1011.2
20260906001557 95 105 2.0 8.0 0.00 0.00 0.00 42 1011.2
20260906001021 95 65 3.0 8.0 0.00 0.00 0.00 42 1011.2
20260906000520 96 96 4.0 9.0 0.00 0.00 0.00 43 1011.2
20260906000051 96 80 3.0 9.0 0.00 0.00 0.00 41 1011.1
20260905235525 96 72 3.0 9.0 0.00 0.00 0.00 42 1011.1
20260905235024 96 107 3.0 9.0 0.00 0.00 0.00 42 1011.0
20260905234547 96 75 2.0 9.0 0.00 0.00 0.00 42 1011.0
20260905234024 96 132 2.0 7.0 0.00 0.00 0.00 43 1010.9
20260905233524 96 123 1.0 8.0 0.00 0.00 0.00 43 1011.0
20260905233044 96 108 2.0 9.0 0.00 0.00 0.00 41 1011.0
20260905232525 97 115 5.0 9.0 0.00 0.00 0.00 41 1011.1
20260905232022 97 113 3.0 8.0 0.00 0.00 0.00 41 1011.1
20260905231542 97 138 3.0 8.0 0.00 0.00 0.00 41 1011.1
20260905231024 97 173 3.0 8.0 0.00 0.00 0.00 43 1011.1
20260905230525 97 115 3.0 8.0 0.00 0.00 0.00 42 1011.0
20260905230051 97 114 1.0 7.0 0.00 0.00 0.00 43 1010.9
20260905225530 97 139 3.0 8.0 0.00 0.00 0.00 42 1010.9
20260905225022 97 139 2.0 9.0 0.00 0.00 0.00 44 1011.0
20260905224543 97 128 4.0 9.0 0.00 0.00 0.00 44 1011.0
20260905224024 97 123 4.0 8.0 0.00 0.00 0.00 43 1011.0
20260905223521 97 78 1.0 9.0 0.00 0.00 0.00 43 1011.0
20260905223050 97 195 3.0 9.0 0.00 0.00 0.00 43 1011.1
20260905222523 97 142 2.0 8.0 0.00 0.00 0.00 44 1011.0
20260905222020 97 0 1.0 8.0 0.00 0.00 0.00 42 1010.9
20260905221547 97 140 2.0 8.0 0.00 0.00 0.00 43 1011.0
20260905221025 97 79 4.0 8.0 0.00 0.00 0.00 43 1011.1
20260905220527 97 0 1.0 9.0 0.00 0.00 0.00 43 1011.2
20260905220045 97 113 4.0 9.0 0.00 0.00 0.00 43 1011.4
20260905215523 98 100 4.0 9.0 0.00 0.00 0.00 42 1011.4
20260905215021 98 153 3.0 9.0 0.00 0.00 0.00 43 1011.3
20260905214546 98 122 3.0 9.0 0.00 0.00 0.00 43 1011.3
20260905214020 98 69 5.0 9.0 0.00 0.00 0.00 42 1011.3
20260905213518 98 155 3.0 10.0 0.00 0.00 0.00 43 1011.3
20260905213041 97 172 5.0 10.0 0.00 0.00 0.00 43 1011.5
20260905212524 97 191 0.0 8.0 0.00 0.00 0.00 43 1011.3
20260905212020 97 0 2.0 12.0 0.00 0.00 0.00 43 1011.5
20260905211544 97 111 5.0 12.0 0.00 0.00 0.00 43 1011.6
20260905211018 97 146 4.0 11.0 0.00 0.00 0.00 43 1011.6
20260905210520 98 127 4.0 12.0 0.00 0.00 0.00 42 1011.7
20260905210056 98 146 2.0 12.0 0.00 0.00 0.00 43 1011.8
20260905205524 98 117 6.0 12.0 0.00 0.00 0.00 41 1011.7
20260905205023 99 169 0.0 8.0 0.00 0.00 0.00 43 1011.9
20260905204550 98 192 0.0 8.0 0.00 0.00 0.00 42 1011.9
20260905204025 98 163 2.0 8.0 0.00 0.00 0.00 43 1012.2
20260905203526 98 75 1.0 10.0 0.00 0.00 0.00 43 1012.2
20260905203048 98 69 2.0 14.0 0.00 0.00 0.00 42 1012.2
20260905202525 98 128 5.0 14.0 0.00 0.00 0.00 42 1012.4
20260905202025 98 230 1.0 10.0 0.00 0.00 0.00 43 1012.4
20260905201548 98 294 3.0 11.0 0.00 0.00 0.00 43 1012.4
20260905201025 98 232 4.0 13.0 0.00 0.00 0.00 44 1012.4
20260905200523 97 145 6.0 13.0 0.00 0.00 0.00 45 1012.6
20260905200108 97 189 0.0 14.0 0.00 0.00 0.00 44 1012.7
20260905195521 96 162 3.0 14.0 0.00 0.00 0.00 47 1012.7
20260905195025 95 0 1.0 8.0 0.00 0.00 0.00 47 1012.8
20260905194549 95 339 2.0 10.0 0.00 0.00 0.00 45 1012.8
20260905194026 95 328 3.0 10.0 0.00 0.00 0.00 45 1012.9
20260905193524 95 198 3.0 7.0 0.00 0.00 0.00 45 1013.0
20260905193047 96 211 1.0 7.0 0.00 0.00 0.00 45 1013.0
20260905192525 96 146 2.0 8.0 0.00 0.00 0.00 46 1013.1
20260905192025 96 78 2.0 11.0 0.00 0.00 0.00 47 1013.3
20260905191544 95 127 5.0 11.0 0.00 0.00 0.00 46 1013.4
20260905191023 96 118 4.0 9.0 0.00 0.00 0.00 46 1013.5
20260905190524 97 207 2.0 13.0 0.00 0.00 0.00 45 1013.6
20260905190045 96 179 4.0 13.0 0.00 0.00 0.00 46 1013.7
20260905185522 96 148 6.0 13.0 0.00 0.00 0.00 47 1013.7
20260905185021 95 115 3.0 9.0 0.00 0.00 0.00 48 1013.7
20260905184551 95 47 4.0 8.0 0.00 0.00 0.00 47 1013.8
20260905184025 96 116 3.0 8.0 0.00 0.00 0.00 45 1013.9
20260905183526 96 0 2.0 8.0 0.00 0.00 0.00 46 1013.9
20260905183049 96 211 3.0 8.0 0.00 0.00 0.00 46 1014.0
20260905182525 96 72 3.0 7.0 0.00 0.00 0.00 45 1014.0
20260905182028 96 152 3.0 11.0 0.00 0.00 0.00 46 1014.1
20260905181548 95 147 6.0 13.0 0.00 0.00 0.00 45 1014.1
20260905181022 95 140 4.0 13.0 0.00 0.00 0.00 47 1014.1
20260905180524 96 147 3.0 10.0 0.00 0.00 0.00 47 1014.2
20260905180045 95 153 1.0 10.0 0.00 0.00 0.00 48 1014.4
20260905175526 95 207 1.0 7.0 0.00 0.00 0.00 47 1014.5
20260905175021 95 136 2.0 9.0 0.00 0.00 0.00 48 1014.5
20260905174542 95 163 3.0 9.0 0.00 0.00 0.00 48 1014.5
20260905174024 95 157 2.0 9.0 0.00 0.00 0.00 48 1014.7
20260905173524 95 198 4.0 9.0 0.00 0.00 0.00 47 1014.8
20260905173053 94 123 3.0 7.0 0.00 0.00 0.00 48 1014.8
20260905172525 94 175 3.0 8.0 0.00 0.00 0.00 48 1014.8
20260905172025 95 188 2.0 8.0 0.00 0.00 0.00 49 1014.7
20260905171547 94 124 1.0 9.0 0.00 0.00 0.00 51 1014.9
20260905171027 94 144 3.0 9.0 0.00 0.00 0.00 49 1014.9
20260905170523 94 140 1.0 5.0 0.00 0.00 0.00 49 1014.9
20260905170043 94 0 1.0 5.0 0.00 0.00 0.00 50 1015.0
20260905165522 93 0 0.0 7.0 0.00 0.00 0.00 53 1015.0
20260905165025 93 0 2.0 7.0 0.00 0.00 0.00 52 1015.0
20260905164545 93 195 1.0 8.0 0.00 0.00 0.00 52 1015.0
20260905164027 93 189 2.0 8.0 0.00 0.00 0.00 53 1015.1
20260905163524 93 201 0.0 6.0 0.00 0.00 0.00 53 1015.1
20260905163048 92 0 0.0 8.0 0.00 0.00 0.00 54 1015.0
20260905162524 92 0 1.0 8.0 0.00 0.00 0.00 54 1014.9
20260905162023 93 144 2.0 8.0 0.00 0.00 0.00 54 1015.1
20260905161547 92 0 0.0 2.0 0.00 0.00 0.00 54 1015.0
20260905161028 92 0 0.0 2.0 0.00 0.00 0.00 55 1015.0
20260905160523 92 0 0.0 4.0 0.00 0.00 0.00 56 1014.9
20260905160042 91 192 0.0 4.0 0.00 0.00 0.00 57 1015.0
20260905155521 91 192 1.0 7.0 0.00 0.00 0.00 57 1015.0
20260905155024 91 212 3.0 7.0 0.00 0.00 0.00 58 1015.1
20260905154545 91 0 1.0 5.0 0.00 0.00 0.00 58 1015.2
20260905154025 90 0 0.0 2.0 0.00 0.00 0.00 59 1015.1
20260905153526 90 0 0.0 2.0 0.00 0.00 0.00 60 1015.1
20260905153049 89 0 0.0 0.0 0.00 0.00 0.00 61 1015.0
20260905152528 89 0 0.0 4.0 0.00 0.00 0.00 64 1015.1
20260905152024 88 0 0.0 6.0 0.00 0.00 0.00 64 1015.2
20260905151555 88 211 1.0 7.0 0.00 0.00 0.00 65 1015.1
20260905151026 88 0 0.0 7.0 0.00 0.00 0.00 66 1015.1
20260905150526 87 217 2.0 7.0 0.00 0.00 0.00 65 1015.0
20260905150043 87 0 0.0 4.0 0.00 0.00 0.00 67 1015.1
20260905145518 87 0 0.0 7.0 0.00 0.00 0.00 69 1015.1
20260905145024 86 0 1.0 7.0 0.00 0.00 0.00 70 1015.1
20260905144549 85 215 2.0 7.0 0.00 0.00 0.00 69 1015.0
20260905144025 85 206 1.0 5.0 0.00 0.00 0.00 70 1014.9
20260905143525 85 216 1.0 4.0 0.00 0.00 0.00 71 1015.0
20260905143050 84 213 0.0 6.0 0.00 0.00 0.00 73 1015.0
20260905142530 84 0 0.0 6.0 0.00 0.00 0.00 74 1014.9
20260905142023 83 212 0.0 6.0 0.00 0.00 0.00 73 1014.9
20260905141546 83 0 0.0 0.0 0.00 0.00 0.00 74 1014.9
20260905141027 83 0 0.0 0.0 0.00 0.00 0.00 75 1015.0
20260905140524 82 0 0.0 0.0 0.00 0.00 0.00 75 1014.9
20260905140042 82 0 0.0 0.0 0.00 0.00 0.00 76 1014.9
20260905135527 81 0 0.0 0.0 0.00 0.00 0.00 77 1014.9
20260905135021 81 0 0.0 0.0 0.00 0.00 0.00 78 1014.8
20260905134541 81 0 0.0 0.0 0.00 0.00 0.00 78 1014.8
20260905134024 80 0 0.0 0.0 0.00 0.00 0.00 79 1014.9
20260905133525 80 0 0.0 0.0 0.00 0.00 0.00 80 1014.8
20260905133047 79 0 0.0 0.0 0.00 0.00 0.00 81 1014.8
20260905132524 79 0 0.0 0.0 0.00 0.00 0.00 81 1014.9
20260905132024 78 0 0.0 0.0 0.00 0.00 0.00 82 1014.9
20260905131556 78 0 0.0 0.0 0.00 0.00 0.00 84 1014.8
20260905131027 77 0 0.0 0.0 0.00 0.00 0.00 85 1014.8
20260905130522 76 0 0.0 0.0 0.00 0.00 0.00 85 1014.7
20260905130043 76 0 0.0 0.0 0.00 0.00 0.00 86 1014.5
20260905125522 75 0 0.0 0.0 0.00 0.00 0.00 86 1014.4
20260905125025 75 0 0.0 0.0 0.00 0.00 0.00 85 1014.5
20260905124553 75 0 0.0 0.0 0.00 0.00 0.00 85 1014.3
20260905124023 75 0 0.0 0.0 0.00 0.00 0.00 85 1014.4
20260905123526 75 0 0.0 0.0 0.00 0.00 0.00 85 1014.3
20260905123105 75 0 0.0 0.0 0.00 0.00 0.00 85 1014.3
20260905122521 75 0 0.0 0.0 0.00 0.00 0.00 85 1014.1
20260905122021 75 0 0.0 0.0 0.00 0.00 0.00 85 1014.1
20260905121544 75 0 0.0 0.0 0.00 0.00 0.00 85 1014.1
20260905121020 75 0 0.0 0.0 0.00 0.00 0.00 84 1014.1
20260905120525 75 0 0.0 0.0 0.00 0.00 0.00 84 1014.0
20260905120041 75 0 0.0 0.0 0.00 0.00 0.00 84 1014.0
20260905115528 76 0 0.0 0.0 0.00 0.00 0.00 83 1014.1
20260905115024 76 0 0.0 0.0 0.00 0.00 0.00 82 1013.9
20260905114549 76 0 0.0 0.0 0.00 0.00 0.00 82 1013.8
20260905114024 76 0 0.0 0.0 0.00 0.00 0.00 81 1013.8
20260905113524 77 0 0.0 0.0 0.00 0.00 0.00 81 1013.9
20260905113046 77 0 0.0 0.0 0.00 0.00 0.00 81 1013.8
20260905112522 77 0 0.0 0.0 0.00 0.00 0.00 81 1013.9
20260905112024 77 0 0.0 0.0 0.00 0.00 0.00 81 1013.9
20260905111549 77 0 0.0 0.0 0.00 0.00 0.00 80 1013.9
20260905111017 78 0 0.0 4.0 0.00 0.00 0.00 80 1013.9
20260905110521 78 0 0.0 5.0 0.00 0.00 0.00 80 1013.8
20260905110040 78 162 0.0 7.0 0.00 0.00 0.00 80 1013.8
20260905105524 78 138 3.0 8.0 0.00 0.00 0.00 80 1013.8
20260905105024 78 143 3.0 8.0 0.00 0.00 0.00 81 1013.8
20260905104547 77 0 0.0 0.0 0.00 0.00 0.00 82 1013.8
20260905104023 77 0 0.0 0.0 0.00 0.00 0.00 82 1013.7
20260905103524 77 0 0.0 0.0 0.00 0.00 0.00 82 1013.7
20260905103055 77 0 0.0 0.0 0.00 0.00 0.00 82 1013.7
20260905102521 77 0 0.0 0.0 0.00 0.00 0.00 82 1013.8
20260905102021 77 0 0.0 0.0 0.00 0.00 0.00 82 1013.8
20260905101542 77 0 0.0 0.0 0.00 0.00 0.00 82 1013.8
20260905101017 77 0 0.0 0.0 0.00 0.00 0.00 82 1013.8
20260905100524 77 0 0.0 0.0 0.00 0.00 0.00 82 1013.8
20260905100057 77 0 0.0 0.0 0.00 0.00 0.00 81 1013.8
20260905095524 77 0 0.0 0.0 0.00 0.00 0.00 81 1013.9
20260905095024 77 0 0.0 0.0 0.00 0.00 0.00 81 1013.8
20260905094550 77 0 0.0 0.0 0.00 0.00 0.00 80 1013.8
20260905094023 77 0 0.0 0.0 0.00 0.00 0.00 80 1013.9
20260905093522 78 0 0.0 0.0 0.00 0.00 0.00 79 1013.8
20260905093046 78 0 0.0 0.0 0.00 0.00 0.00 79 1013.8
20260905092521 78 0 0.0 0.0 0.00 0.00 0.00 78 1013.7
20260905092021 78 0 0.0 0.0 0.00 0.00 0.00 78 1013.8
20260905091549 78 0 0.0 0.0 0.00 0.00 0.00 78 1013.8
20260905091018 79 0 0.0 0.0 0.00 0.00 0.00 78 1013.7
20260905090517 79 0 0.0 0.0 0.00 0.00 0.00 78 1013.7
20260905090038 79 0 0.0 0.0 0.00 0.00 0.00 78 1013.6
20260905085524 79 0 0.0 0.0 0.00 0.00 0.00 78 1013.6
20260905085024 78 0 0.0 0.0 0.00 0.00 0.00 78 1013.6
20260905084603 78 0 0.0 0.0 0.00 0.00 0.00 78 1013.6
20260905084023 78 0 0.0 0.0 0.00 0.00 0.00 77 1013.6
20260905083530 79 0 0.0 0.0 0.00 0.00 0.00 77 1013.6
20260905083049 79 0 0.0 0.0 0.00 0.00 0.00 77 1013.6
20260905082523 79 0 0.0 0.0 0.00 0.00 0.00 77 1013.6
20260905082023 79 0 0.0 0.0 0.00 0.00 0.00 77 1013.5
20260905081541 79 0 0.0 0.0 0.00 0.00 0.00 76 1013.6
20260905081029 79 0 0.0 0.0 0.00 0.00 0.00 76 1013.5
20260905080520 80 0 0.0 0.0 0.00 0.00 0.00 75 1013.6
20260905080113 80 0 0.0 0.0 0.00 0.00 0.00 74 1013.6
20260905075524 80 0 0.0 0.0 0.00 0.00 0.00 73 1013.6
20260905075023 80 0 0.0 0.0 0.00 0.00 0.00 73 1013.6
20260905074549 81 0 0.0 0.0 0.00 0.00 0.00 73 1013.5
20260905074023 81 0 0.0 0.0 0.00 0.00 0.00 73 1013.5
20260905073523 81 0 0.0 0.0 0.00 0.00 0.00 73 1013.7
20260905073043 81 0 0.0 1.0 0.00 0.00 0.00 72 1013.6
20260905072526 81 0 0.0 1.0 0.00 0.00 0.00 72 1013.7
20260905072028 81 0 0.0 1.0 0.00 0.00 0.00 72 1013.7
20260905071542 81 0 0.0 0.0 0.00 0.00 0.00 71 1013.7
20260905071017 82 0 0.0 0.0 0.00 0.00 0.00 70 1013.8
20260905070523 82 0 0.0 0.0 0.00 0.00 0.00 69 1013.8
20260905070055 82 0 0.0 0.0 0.00 0.00 0.00 69 1013.8
20260905065527 83 0 0.0 0.0 0.00 0.00 0.00 68 1013.8
20260905065025 83 0 0.0 0.0 0.00 0.00 0.00 68 1013.8
20260905064553 83 0 0.0 0.0 0.00 0.00 0.00 67 1013.8
20260905064024 83 0 0.0 0.0 0.00 0.00 0.00 67 1013.9
20260905063522 83 0 0.0 0.0 0.00 0.00 0.00 67 1013.9
20260905063044 84 0 0.0 0.0 0.00 0.00 0.00 67 1013.8
20260905062524 84 0 0.0 0.0 0.00 0.00 0.00 66 1013.9
20260905062020 84 0 0.0 0.0 0.00 0.00 0.00 66 1013.8
20260905061541 84 0 0.0 0.0 0.00 0.00 0.00 66 1013.8
20260905061027 84 0 0.0 0.0 0.00 0.00 0.00 65 1013.8
20260905060524 84 0 0.0 0.0 0.00 0.00 0.00 65 1013.7
20260905060057 85 0 0.0 0.0 0.00 0.00 0.00 65 1013.7
20260905055524 85 0 0.0 0.0 0.00 0.00 0.00 64 1013.7
20260905055026 85 0 0.0 1.0 0.00 0.00 0.00 64 1013.8
20260905054553 85 0 0.0 3.0 0.00 0.00 0.00 63 1013.7
20260905054028 85 0 0.0 5.0 0.00 0.00 0.00 63 1013.8
20260905053523 86 0 0.0 5.0 0.00 0.00 0.00 63 1013.7
20260905053044 86 204 1.0 5.0 0.00 0.00 0.00 62 1013.6